Wilkes Barre Scranton International Airport
KAVP : now visible

Airfield :











YOU CAN JOIN US ON...

 
LOGIN :

Register | Disclaimer

   EN    FR    IT 

 









Legend :    VFR   Marginal VFR   IFR   Intensive IFR   Very Intensive IFR
Visi :
Ceiling :
>= 8 km
>= 3000ft
5 to 8 km
1000 to 3000 ft
1500m to 5 km
500 to 1000 ft
800 to 1500m
200 to 500 ft
< 800m
< 200 ft
Symbols :   Thunderstorms  Fog  Heavy snow  Heavy precipitations  Wind > 20 kt






- Airport Elevation : 962 ft
- IATA code : AVP


KAVP - Wilkes Barre Scranton International

CURRENT METAR :
  • 160554Z 00000KT 10SM BKN100 13/06 A3023 RMK AO2 SLP232 T01280056 10183 20117 53004

EXPIRED METARs :
  • 160454Z 12003KT 10SM FEW110 12/05 A3022 RMK AO2 SLP229 T01170050 402390072
  • 160354Z 12005KT 10SM BKN100 OVC120 14/04 A3021 RMK AO2 SLP227 T01390044

TAF KAVP
Valid from the 16 at 06:00 until the 17 at 06:00 UTC


160524Z 1606/1706 VRB03KT P6SM BKN100
FM161700 26006KT P6SM VCSH BKN060
TEMPO 1619/1623 5SM -SHRA BR OVC040
FM170200 VRB02KT P6SM SCT100
KZNY FIR / North America



MET'MAP, your aeronautical weather chart ! - Copyright ORBIFLY December 2007 - Disclaimer

ORBIFLY MET'MAP TEAM :

Programming & Development : Alexandra Zaïnal
Concept & original design : Baudouin d'Aumeries
Assistance for programming : Marc-Olivier Méhu
Technical & hardware support : Manuel Goepfert

Contact : metmap@orbifly.com




SOURCES & CREDITS :

   NOAA       Earth
Advisory